Snowfall_Accumulation
0.0 0.0 0.0 0.0 0.0 0.0 0.0 0.0 0.0 0.0 0.0 0.0 0.0 0.0 0.0 0.0 0.0 0.0 0.0 0.0 0.0 0.0 0.0 0.0 0.0 0.0 0.0
0.4 0.5 0.3 0.0 0.0 0.0 0.0 0.0 0.0 0.0 0.0 0.0 0.0 0.0 0.0 0.0 0.0 0.0 0.0 0.0 0.0 0.0 0.0 0.0 0.0 0.0 0.0
1.0 0.1 0.3 0.0 1.3 0.1 0.0 0.0 0.0 0.0 0.0 0.0 0.0 0.0 0.0 0.0 0.0 0.0 0.0 0.0 0.0 0.0 0.0 0.0 0.0 0.0 0.0
0.7 0.5 0.9 0.6 0.4 0.7 0.4 0.2 0.5 0.0 0.0 0.0 0.0 0.0 0.0 0.0 0.0 0.0 0.0 0.0 0.0 0.0 0.0 0.0 0.0 0.0 0.0
2.5 1.3 0.5 0.3 0.3 0.2 0.9 0.6 1.4 0.3 0.5 0.9 0.3 0.3 0.0 0.0 0.0 0.0 0.0 0.0 0.0 0.0 0.0 0.0 0.0 0.0 0.0
3.3 1.3 0.2 0.1 0.2 0.4 2.3 4.9 8.1 0.0 4.6 2.5 0.3 1.0 0.1 0.0 0.0 0.0 0.0 0.0 0.0 0.0 0.0 0.0 0.0 0.0 0.0
1.5 0.3 0.3 0.2 1.5 2.5 2.7 5.1 6.8 3.0 5.7 5.1 1.0 1.9 0.0 0.0 0.0 0.0 0.0 0.0 0.0 0.0 0.0 0.0 0.0 0.0 0.0
0.1 0.3 0.7 0.3 1.1 2.0 2.1 2.5 1.3 1.4 5.6 13.9 2.9 2.0 0.3 0.0 0.0 0.1 0.0 0.0 0.0 0.0 0.0 0.0 0.0 0.0 0.0
0.1 0.0 0.0 0.0 0.0 0.9 4.0 6.8 6.7 4.3 5.6 10.2 4.9 6.2 0.8 0.4 0.1 0.0 0.0 0.0 0.0 0.0 0.0 0.0 0.0 0.0 0.0
0.0 0.0 0.0 0.0 0.0 0.0 2.0 13.0 12.0 9.7 2.8 11.7 7.4 9.4 12.1 0.2 0.2 0.0 0.2 0.1 0.0 0.0 0.0 0.0 0.0 0.2 0.5
0.3 0.1 0.0 0.0 0.7 0.5 0.2 4.8 15.2 13.9 2.0 13.4 17.8 10.0 17.9 8.5 0.4 0.2 0.3 0.2 0.2 0.1 0.0 0.0 0.4 0.7 2.9
1.5 1.3 0.8 0.3 0.1 0.4 0.4 0.2 0.6 6.5 4.2 6.7 28.7 17.9 28.1 20.3 2.8 1.1 0.5 0.1 0.5 0.8 0.4 0.8 0.8 0.8 0.5
1.3 0.7 0.3 0.6 0.9 1.4 1.1 1.3 1.2 1.5 2.7 4.6 12.5 17.0 26.1 30.3 13.0 2.1 2.8 0.5 0.1 1.7 2.3 2.7 2.6 2.7 3.9
2.2 1.6 1.7 1.1 1.5 1.0 2.5 2.8 6.3 5.8 2.8 3.9 6.6 15.4 27.1 15.1 17.6 8.9 2.6 8.0 1.1 1.3 3.0 2.1 1.5 1.8 2.3
2.9 3.9 3.1 3.3 2.4 2.0 3.1 4.9 9.8 6.4 7.3 8.8 8.0 10.4 14.1 19.7 17.7 11.8 6.8 7.2 5.4 6.0 6.3 4.9 0.7 1.4 1.8
4.6 4.6 7.8 6.1 5.7 6.3 5.5 7.4 12.8 10.3 11.9 12.0 13.3 18.9 19.9 21.3 13.4 15.7 12.2 10.7 9.1 9.2 7.4 12.7 7.7 3.5 3.1
10.9 9.7 11.3 11.2 10.5 8.4 8.0 9.9 13.2 12.5 14.7 13.9 20.2 26.3 38.1 30.0 25.9 12.7 26.7 16.9 15.5 15.3 9.0 9.5 9.9 5.4 3.1